Weather History for San Angelo, TX

Change the Weather History Date:

Sunday, October 10, 2010

  Actual Average Record
Temperature  
Mean Temperature 73 °F 68 °F  
Max Temperature 91 °F 81 °F 94 °F (1965)
Min Temperature 55 °F 56 °F 36 °F (1990)
Degree Days  
Heating Degree Days 0 2  
Month to date heating degree days 3 12  
Since 1 July heating degree days 3 21  
Cooling Degree Days 8 5  
Month to date cooling degree days 37 57  
Year to date cooling degree days 2853 2422  
Growing Degree Days 24 (Base 50)    
Moisture  
Dew Point 53 °F    
Average Humidity 49    
Maximum Humidity 77    
Minimum Humidity 21    
Precipitation  
Precipitation 0.00 in 0.09 in 1.45 in (1918)
Month to date precipitation 0.00 0.87  
Year to date precipitation 16.63 17.40  
Snow  
Snow 0.00 in 0.00 in T in (2001)
Month to date snowfall 0.0 0.0  
Since 1 July snowfall 0.0 0.0  
Snow Depth 0.00 in    
Sea Level Pressure  
Sea Level Pressure 29.86 in    
Wind  
Wind Speed 9 mph (South)    
Max Wind Speed 20 mph    
Max Gust Speed 25 mph    
Visibility 10 miles    
Events      
T = Trace of Precipitation, MM = Missing Value Source: NWS Daily Summary

Daily Weather History Graph

Daily Weather History Graph

Search for Another Location

Airport:

Trip Planner

Search our weather history database for the weather conditions in past years. The results will help you decide how hot, cold, wet, or windy it might be!

Date:

Astronomy

Oct. 10, 2010 Rise Set
Actual Time 7:41 AM CDT 7:15 PM CDT
Civil Twilight 7:17 AM CDT 7:40 PM CDT
Nautical Twilight 6:49 AM CDT 8:08 PM CDT
Astronomical Twilight 6:20 AM CDT 8:36 PM CDT
Moon 10:56 AM CDT (10/10) 9:20 PM CDT (10/10)
Length of Visible Light 12h 23m
Length of Day
11h 34m
Waxing Crescent, 12% of the Moon is Illuminated
Oct 10
Waxing Crescent
Oct 14
First Quarter
Oct 22
Full
Oct 30
Last Quarter
Nov 5
New

Hourly Weather History & Observations

Time (CDT) Temp. Heat Index Dew Point Humidity Pressure Visibility Wind Dir Wind Speed Gust Speed Precip Events Conditions
12:51 AM 70.0 °F - 51.1 °F 51% 29.94 in 10.0 mi SSW 8.1 mph - N/A   Clear
1:51 AM 68.0 °F - 50.0 °F 52% 29.93 in 10.0 mi SSW 9.2 mph - N/A   Clear
2:51 AM 68.0 °F - 51.1 °F 55% 29.92 in 10.0 mi South 10.4 mph - N/A   Clear
3:51 AM 66.0 °F - 51.1 °F 59% 29.91 in 10.0 mi South 6.9 mph - N/A   Clear
4:51 AM 62.1 °F - 51.1 °F 67% 29.91 in 10.0 mi SSW 6.9 mph - N/A   Clear
5:51 AM 60.1 °F - 51.1 °F 72% 29.92 in 10.0 mi Calm Calm - N/A   Clear
6:51 AM 57.0 °F - 48.9 °F 74% 29.93 in 10.0 mi South 3.5 mph - N/A   Clear
7:51 AM 57.0 °F - 50.0 °F 77% 29.94 in 10.0 mi Calm Calm - N/A   Clear
8:51 AM 64.0 °F - 55.0 °F 73% 29.94 in 10.0 mi South 8.1 mph - N/A   Clear
9:51 AM 70.0 °F - 57.9 °F 65% 29.94 in 10.0 mi SSE 9.2 mph - N/A   Clear
10:51 AM 75.9 °F - 59.0 °F 56% 29.93 in 10.0 mi South 11.5 mph - N/A   Clear
11:51 AM 80.1 °F 80.7 °F 59.0 °F 48% 29.91 in 10.0 mi South 8.1 mph 17.3 mph N/A   Clear
12:51 PM 86.0 °F 85.0 °F 57.9 °F 38% 29.88 in 10.0 mi SSE 13.8 mph 21.9 mph N/A   Clear
1:51 PM 88.0 °F 86.7 °F 57.0 °F 35% 29.84 in 10.0 mi South 12.7 mph 20.7 mph N/A   Clear
2:51 PM 90.0 °F - 52.0 °F 27% 29.79 in 10.0 mi South 12.7 mph 23.0 mph N/A   Clear
3:51 PM 91.0 °F - 48.9 °F 23% 29.76 in 10.0 mi South 15.0 mph 21.9 mph N/A   Clear
4:51 PM 91.0 °F - 46.9 °F 22% 29.75 in 10.0 mi South 17.3 mph - N/A   Clear
5:51 PM 89.1 °F - 48.9 °F 25% 29.75 in 10.0 mi SSE 12.7 mph - N/A   Clear
6:51 PM 84.9 °F - 52.0 °F 32% 29.76 in 10.0 mi South 9.2 mph - N/A   Clear
7:51 PM 81.0 °F 80.4 °F 53.1 °F 38% 29.78 in 10.0 mi South 9.2 mph - N/A   Clear
8:51 PM 79.0 °F - 53.1 °F 40% 29.78 in 10.0 mi South 9.2 mph - N/A   Clear
9:51 PM 77.0 °F - 52.0 °F 42% 29.80 in 10.0 mi SSW 9.2 mph - N/A   Clear
10:51 PM 73.9 °F - 53.1 °F 48% 29.80 in 10.0 mi South 8.1 mph - N/A   Clear
11:51 PM 71.1 °F - 53.1 °F 53% 29.81 in 10.0 mi South 8.1 mph - N/A   Clear